Weather History for Cortez, CO

Change the Weather History Date:

Monday, July 30, 2012

  Actual Average Record
Temperature  
Mean Temperature 76 °F 72 °F  
Max Temperature 94 °F 89 °F 95 °F (2008)
Min Temperature 57 °F 55 °F 50 °F (2004)
Degree Days  
Heating Degree Days 0 0  
Month to date heating degree days 0 0  
Since 1 June heating degree days 11 75  
Since 1 July heating degree days 0 0  
Cooling Degree Days 11 7  
Month to date cooling degree days 280 191  
Year to date cooling degree days 445 254  
Since 1 June cooling degree days 436 249  
Growing Degree Days 24 (Base 50)    
Moisture  
Dew Point 49 °F    
Average Humidity 52    
Maximum Humidity 87    
Minimum Humidity 16    
Precipitation  
Precipitation 0.00 in 0.08 in 0.17 in (2006)
Month to date precipitation 1.66 1.20  
Year to date precipitation 4.15 6.82  
Sea Level Pressure  
Sea Level Pressure 29.98 in    
Wind  
Wind Speed 6 mph (East)    
Max Wind Speed 16 mph    
Max Gust Speed 22 mph    
Visibility 10 miles    
Events      
T = Trace of Precipitation, MM = Missing Value Source: NWS Daily Summary

Daily Weather History Graph

Daily Weather History Graph

Search for Another Location

Airport:

Trip Planner

Search our weather history database for the weather conditions in past years. The results will help you decide how hot, cold, wet, or windy it might be!

Date:

Astronomy

Jul. 30, 2012 Rise Set
Actual Time 6:17 AM MDT 8:23 PM MDT
Civil Twilight 5:48 AM MDT 8:52 PM MDT
Nautical Twilight 5:13 AM MDT 9:27 PM MDT
Astronomical Twilight 4:35 AM MDT 10:05 PM MDT
Moon 6:26 PM MDT (7/30) 3:37 AM MDT (7/30)
Length of Visible Light 15h 03m
Length of Day
14h 05m
Waxing Gibbous, 93% of the Moon is Illuminated
Jul 30
Waxing Gibbous
Aug 1
Full
Aug 9
Last Quarter
Aug 17
New
Aug 24
First Quarter

Hourly Weather History & Observations

Time (MDT) Temp. Dew Point Humidity Pressure Visibility Wind Dir Wind Speed Gust Speed Precip Events Conditions
12:53 AM 62.1 °F 55.9 °F 80% 30.01 in 10.0 mi ENE 5.8 mph - N/A   Clear
1:53 AM 64.0 °F 55.9 °F 75% 30.00 in 10.0 mi East 5.8 mph - N/A   Clear
2:53 AM 61.0 °F 55.0 °F 81% 30.00 in 10.0 mi Calm Calm - N/A   Clear
3:53 AM 61.0 °F 55.0 °F 81% 30.01 in 10.0 mi East 8.1 mph - N/A   Clear
4:53 AM 59.0 °F 55.0 °F 87% 30.03 in 10.0 mi East 4.6 mph - N/A   Clear
5:53 AM 57.9 °F 54.0 °F 87% 30.06 in 10.0 mi East 4.6 mph - N/A   Clear
6:53 AM 59.0 °F 54.0 °F 83% 30.06 in 10.0 mi NNE 4.6 mph - N/A   Clear
7:53 AM 64.9 °F 55.9 °F 73% 30.05 in 10.0 mi NNE 4.6 mph - N/A   Clear
8:53 AM 72.0 °F 55.0 °F 55% 30.06 in 10.0 mi Variable 4.6 mph - N/A   Clear
9:53 AM 75.9 °F 53.1 °F 45% 30.05 in 10.0 mi ENE 3.5 mph - N/A   Clear
10:53 AM 82.0 °F 51.1 °F 34% 30.03 in 10.0 mi NE 5.8 mph - N/A   Clear
11:53 AM 82.9 °F 48.0 °F 29% 30.03 in 10.0 mi Calm Calm - N/A   Clear
12:53 PM 89.1 °F 48.9 °F 25% 30.01 in 10.0 mi Variable 5.8 mph - N/A   Clear
1:53 PM 90.0 °F 45.0 °F 21% 29.97 in 10.0 mi SW 8.1 mph - N/A   Partly Cloudy
2:53 PM 91.9 °F 41.0 °F 17% 29.94 in 10.0 mi WSW 10.4 mph - N/A   Scattered Clouds
3:53 PM 91.0 °F 41.0 °F 17% 29.93 in 10.0 mi SW 8.1 mph 16.1 mph N/A   Clear
4:53 PM 91.0 °F 42.1 °F 18% 29.91 in 10.0 mi WSW 11.5 mph 16.1 mph N/A   Clear
5:53 PM 91.0 °F 39.9 °F 17% 29.89 in 10.0 mi SSW 10.4 mph - N/A   Clear
6:53 PM 89.1 °F 41.0 °F 19% 29.89 in 10.0 mi SW 10.4 mph - N/A   Clear
7:53 PM 84.9 °F 43.0 °F 23% 29.89 in 10.0 mi West 3.5 mph - N/A   Clear
8:53 PM 79.0 °F 46.9 °F 32% 29.91 in 10.0 mi Calm Calm - N/A   Clear
9:53 PM 73.9 °F 48.0 °F 40% 29.95 in 10.0 mi East 5.8 mph - N/A   Clear
10:53 PM 71.1 °F 50.0 °F 47% 29.94 in 10.0 mi NE 5.8 mph - N/A   Clear
11:53 PM 66.0 °F 50.0 °F 56% 29.96 in 10.0 mi NE 5.8 mph - N/A   Clear